NOAA 16 DEB, 41509

Orbit data source: Space-Track

NOAA 16 DEB, 41509 is space debris in SSO originally from a launch on Thu, 21 Sep 2000 UTC launched from the Air Force Western Test Range (AFWTR). Debris objects in space refer to the collection of defunct objects orbiting the Earth. Examples of debris include non-operational satellites, rocket bodies, and fragments generated from explosions, collisions, or faulty payload assembly.

Loading next visibility...
Identifier
41509, 2000-055MH
Orbit
SSO
Country
Flag of USUS
Related business
Manufacturer
Unknown
Mission
Spacecraft
Bus & Motor
Unknown
Mass
Unknown
Launch date (UTC)
2000-09-21 (26 years ago)
Launch vehicle
Unknown
Launch site
Air Force Western Test Range (AFWTR)
Object type
Payload
Rocket body
Debris
Shape & HBR
Unknown shape, 0.1 m
Radar Cross Section
Medium (>0.1 m² and <1 m²)

Expand to show TLE details & history
Last TLE update: 17 hours ago

TLE from 17 hours ago
0 NOAA 16 DEB
1 41509U 00055MH  26254.25155752  .00002560  00000-0  95633-3 0  9992
2 41509  98.7639 355.0503 0017076  87.1617 273.1520 14.32671969542105
Epoch: 2026-09-11T06:02Z
TLE epoch observation values (Epoch: 2026-09-11T06:02:14.569Z)
Latitude
-0.00008°
Longitude
-85.78798°
Altitude
785.092 km
Speed
7.462 km/s
True Right ascension
23h 40m 12s
True Declination
0° 00' 00"
Sunlit
Object was in full shadow at epoch
Visualization orbit readout
Latitude
Unknown
Longitude
Unknown
Altitude
Unknown
Speed
Unknown
Apparent Right ascension
Unknown
Apparent Declination
Unknown
Sunlit
N/A
Visualization observer readout
Local Sidereal Time
15:44:35
Azimuth
Unknown
Elevation
Unknown
Doppler factor
Unknown
Orbital elements
Apogee altitude
792.181 km
Perigee altitude
767.735 km
Semi-major axis
7,158.095 km
Eccentricity
0.00171
Inclination
98.7639°
RAAN
355.0503°
Arg. of periapsis
87.1617°
True anomaly
272.9566°
Mean anomaly
273.152°
Eccentric anomaly
273.0543°
Mean motion
3.58383 °/min
Orbital period
100.45 mins
BSTAR
0.00095633
Loading maneuver chart data...
Computing Atmospheric mass density...
Loading historical data...
Loading historical data...
Loading historical data...
Loading historical data...
Loading historical data...
Loading historical data...
Loading historical data...

Documentation

Showing up to 5 results
|